2 27607 064.5582 023.8492 0067242 205.6162 154.1628 14.71441897348733
CO-55
1 27844U 03031E 09168.69648319 .00000032 00000-0 35131-4 0 06036
2 27844 098.7119 177.8542 0010586 137.1511 223.0488 14.20642459309337
CO-57
1 27848U 03031J 09168.53320528 .00000030 00000-0 34493-4 0 05501
2 27848 098.7138 176.7543 0009955 141.5102 218.6789 14.20444106309270
AO-51
1 28375U 04025K 09168.58966554 .00000008 00000-0 14878-4 0 04151
2 28375 098.0515 178.1695 0084359 123.2237 237.7075 14.40644956261015
CO-56
1 28941U 06005C 09168.91560107 .00068576 41863-5 22641-3 0 01740
2 28941 098.1385 343.4811 0084411 129.8711 231.0021 15.84780787187360
GENESAT1
1 29655U 06058C 09167.48152799 .00007861 00000-0 78636-4 0 07426
2 29655 040.0245 187.7385 0000455 115.4921 244.5941 15.65608158142360
CP3
1 31129U 07012N 09169.34344490 .00000090 00000-0 31857-4 0 46
2 31129 097.9879 222.3633 0101508 282.0708 076.9131 14.52138917115050
CO-65
1 32785U 08021C 09168.39520636 .00000035 00000-0 11226-4 0 03992
2 32785 097.9456 232.3606 0015798 034.1005 326.1228 14.81490665061478
KKS-1
1 33493U 09002B 09169.38310467 .00000186 00000-0 31226-4 0 4842
2 33493 098.0574 281.5973 0018933 236.3528 123.5880 14.80684685 21645
SOHLA-1
1 33496U 09002E 09169.33998438 .00000010 00000-0 98538-5 0 4453
2 33496 098.0387 278.6297 0005383 284.2608 075.8019 14.69436895 21448
NOAA-10
1 16969U 86073A 09168.64783734 -.00000069 00000-0 -10165-4 0 06521
2 16969 098.6908 195.2930 0011958 191.9899 168.0988 14.27388261183578
NOAA-11
1 19531U 88089A 09168.84382473 -.00000115 00000-0 -36848-4 0 06668
2 19531 098.7848 258.7868 0012391 105.9269 254.3256 14.14896982069618
NOAA-12
1 21263U 91032A 09168.94959527 .00000010 00000-0 23227-4 0 01716
2 21263 098.7700 177.0097 0012898 139.7470 220.4667 14.25582563940503
MET-3/5
1 21655U 91056A 09168.90894435 .00000051 00000-0 10000-3 0 06690
2 21655 082.5523 205.9830 0013110 174.0485 186.0796 13.17019411857722
MET-2/21
1 22782U 93055A 09168.90232003 .00000038 00000-0 21072-4 0 4864
2 22782 082.5472 181.4402 0022233 349.0565 011.0103 13.83635670797703
OKEAN-4
1 23317U 94066A 09168.70704251 .00000234 00000-0 25936-4 0 9371
2 23317 082.5394 334.0006 0022607 007.3533 352.8000 14.82703638792449
NOAA-14
1 23455U 94089A 09168.87841558 -.00000203 00000-0 -83961-4 0 06567
2 23455 098.9087 246.5559 0009412 183.6279 176.4808 14.13763244746028
NOAA-15
1 25338U 98030A 09168.89569545 -.00000005 00000-0 16294-4 0 09684
2 25338 098.5841 158.0863 0011585 059.4543 300.7749 14.24766487576871
RESURS
1 25394U 98043A 09168.72220706 -.00000037 00000-0 17065-5 0 02535
2 25394 098.3406 201.0433 0000848 169.3851 190.7346 14.24183940568477
FENGYUN1
1 25730U 99025A 09168.92193744 -.00000799 00000-0 -44502-3 0 08348
2 25730 098.7565 139.0664 0019247 215.9169 144.0708 14.07912222520421
OKEAN-0
1 25860U 99039A 09168.85055746 .00000019 00000-0 10174-4 0 07079
2 25860 097.7855 150.0036 0001359 107.6517 252.4841 14.73576986533243
NOAA-16
1 26536U 00055A 09168.92986186 .00000045 00000-0 49736-4 0 04453
2 26536 099.1762 172.6132 0009629 281.4643 078.5435 14.12521602450403
NOAA-17
1 27453U 02032A 09168.91397125 .00000149 00000-0 82832-4 0 04524
2 27453 098.4837 227.9589 0012703 119.4006 240.8441 14.24070961362859
NOAA-18
1 28654U 05018A 09168.89788291 .00000401 00000-0 24655-3 0 09423
2 28654 098.9072 112.1310 0014484 005.1210 355.0144 14.11265430210058
NOAA-19
1 33591U 09005A 09168.73620293 -.00000003 00000-0 22336-4 0 01458
2 33591 098.7469 114.4827 0013202 240.1374 119.8473 14.10965226018516
HUBBLE
1 20580U 90037B 09168.24607405 .00000282 00000-0 88263-5 0 04096
2 20580 028.4682 101.9284 0003301 281.8128 078.2090 15.00809493849869
ISS
1 25544U 98067A 09168.89338167 .00013743 00000-0 99372-4 0 00587
2 25544 051.6413 303.2759 0008853 122.3216 021.0594 15.73787424606069
CO-58
1 28895U 05043F 09168.40667934 -.00000043 00000-0 49191-6 0 03315
2 28895 098.0597 059.0173 0017822 351.4463 008.6403 14.59774683193764
FALCON
1 30776U 07006E 09168.96229017 .00000234 00000-0 19972-4 0 05948
2 30776 035.4327 094.7053 0001722 304.0219 056.0343 15.03256682125218
MAST
1 31126U 07012K 09168.86049026 -.00000019 00000-0 64867-5 0 06200
2 31126 097.9894 223.6357 0093445 278.1579 080.9008 14.53500617115131
CAPE1
1 31130U 07012P 09168.83107688 -.00000085 00000-0 -84792-5 0 06305
2 31130 097.9919 221.7898 0101104 283.5752 075.4172 14.52063717114783
COMPASS
1 32787U 08021E 09168.16942204 .00000226 00000-0 35442-4 0 03930
2 32787 097.9423 231.9942 0016753 035.6014 324.6312 14.81614453061447
AAUSAT2
1 32788U 08021F 09168.74506721 .00000009 00000-0 79415-5 0 3854
2 32788 097.9406 232.6225 0016361 035.3304 324.8975 14.81736294 61530
DO-64
1 32789U 08021G 09168.76673300 .00000440 00000-0 62474-4 0 3962
2 32789 097.9473 232.8070 0016543 033.4827 326.7427 14.81724287 61538
CO-66
1 32791U 08021J 09168.14470888 .00000388 00000-0 56280-4 0 03838
2 32791 097.9453 232.0034 0017207 034.0045 326.2267 14.81444061061400
RS-30
1 32953U 08025A 09168.75321021 .00000010 00000-0 00000-0 0 03335
2 32953 082.5018 256.2592 0019385 173.5586 186.5751 12.43001722048467
TACSAT-3
1 35001U 09028A 09168.60052525 .00001224 00000-0 36893-4 0 00350
2 35001 040.4564 238.1823 0023800 167.4218 192.7192 15.38837285004413
PHARMSAT
1 35002U 09028B 09168.58610600 .00001319 00000-0 38299-4 0 00326
2 35002 040.4687 238.0932 0026618 171.1736 188.9550 15.39608994004405
HAWKSAT1
1 35003U 09028C 09168.58115307 .00000926 00000-0 28443-4 0 00380
2 35003 040.4708 238.0590 0027383 172.9269 187.1936 15.39866827004411
CP6
1 35004U 09028D 09168.57868319 .00002804 00000-0 73494-4 0 235
2 35004 040.4623 238.0156 0027466 174.4077 185.7048 15.40055166 4407
AEROCUB3
1 35005U 09028E 09168.58222696 .00002867 00000-0 75521-4 0 00321
2 35005 040.4775 238.0801 0026609 171.7315 188.3941 15.39872243004408
/EX
1
0
SB KEPS @ AMSAT $ORB09169.O
Orbital Elements 09169.OSCAR
HR AMSAT ORBITAL ELEMENTS FOR OSCAR SATELLITES
FROM WA5QGD FORT WORTH,TX June 18, 2009
Send Subscribe/unsubscribe to KEPS at
http://www.amsat.org/mailman/listinfo/keps
BID: ORB09169.O
TO ALL RADIO AMATEURS BT
Satellite: AO-07
Catalog number: 07530
Epoch time: 09168.80699255
Element set: 0507
Inclination: 101.4259 deg
RA of node: 193.4604 deg
Eccentricity: 0.0011483
Arg of perigee: 267.4660 deg
Mean anomaly: 092.5088 deg
Mean motion: 12.53575804 rev/day
Decay rate: -2.7e-07 rev/day^2
Epoch rev: 58279
Checksum: 323
Satellite: FO-29
Catalog number: 24278
Epoch time: 09168.66830070
Element set: 0087
Inclination: 098.5541 deg
RA of node: 042.6392 deg
Eccentricity: 0.0350935
Arg of perigee: 349.3062 deg
Mean anomaly: 010.0749 deg
Mean motion: 13.52944165 rev/day
Decay rate: -1.0e-08 rev/day^2
Epoch rev: 63381
Checksum: 309
Satellite: SO-33
Catalog number: 25509
Epoch time: 09168.75442445
Element set: 0478
Inclination: 031.4348 deg
RA of node: 049.2727 deg
Eccentricity: 0.0355124
Arg of perigee: 343.4318 deg
Mean anomaly: 015.5057 deg
Mean motion: 14.28253698 rev/day
Decay rate: 2.07e-06 rev/day^2
Epoch rev: 55591
Checksum: 320
Satellite: RS-22
Catalog number: 27939
Epoch time: 09168.60884170
Element set: 0818
Inclination: 097.9449 deg
RA of node: 043.4633 deg
Eccentricity: 0.0014447
Arg of perigee: 128.3044 deg
Mean anomaly: 231.9461 deg
Mean motion: 14.63323318 rev/day
Decay rate: 6.1e-07 rev/day^2
Epoch rev: 30563
Checksum: 311
Satellite: VO-52
Catalog number: 28650
Epoch time: 09168.58974510
Element set: 0251
Inclination: 097.7430 deg
RA of node: 230.1584 deg
Eccentricity: 0.0027864
Arg of perigee: 030.6884 deg
Mean anomaly: 329.5960 deg
Mean motion: 14.81592825 rev/day
Decay rate: -1.27e-06 rev/day^2
Epoch rev: 22270
Checksum: 321
/EX
SB KEPS @ AMSAT $ORB09169.D
Orbital Elements 09169.MICROS
HR AMSAT ORBITAL ELEMENTS FOR THE MICROSATS
FROM WA5QGD FORT WORTH,TX June 18, 2009
Send Subscribe/unsubscribe to KEPS at
http://www.amsat.org/mailman/listinfo/keps
BID: ORB09169.D
TO ALL RADIO AMATEURS BT
Satellite: AO-16
Catalog number: 20439
Epoch time: 09168.90284975
Element set: 0630
Inclination: 098.2778 deg
RA of node: 137.2716 deg
Eccentricity: 0.0010872
Arg of perigee: 163.7834 deg
Mean anomaly: 196.3702 deg
Mean motion: 14.31826267 rev/day
Decay rate: -1.0e-07 rev/day^2
Epoch rev: 01325
Checksum: 312
Satellite: LO-19
Catalog number: 20442
Epoch time: 09168.61036070
Element set: 0549
Inclination: 098.2409 deg
RA of node: 144.2540 deg
Eccentricity: 0.0012294
Arg of perigee: 161.6339 deg
Mean anomaly: 198.5291 deg
Mean motion: 14.32061355 rev/day
Decay rate: -1.20e-06 rev/day^2
Epoch rev: 01337
Checksum: 279
Satellite: AO-27
Catalog number: 22825
Epoch time: 09168.91567913
Element set: 0270
Inclination: 098.4359 deg
RA of node: 122.3159 deg
Eccentricity: 0.0007469
Arg of perigee: 260.4711 deg
Mean anomaly: 099.5640 deg
Mean motion: 14.29267246 rev/day
Decay rate: -5.7e-07 rev/day^2
Epoch rev: 82001
Checksum: 321
Satellite: IO-26
Catalog number: 22826
Epoch time: 09168.83575997
Element set: 0997
Inclination: 098.4300 deg
RA of node: 122.9870 deg
Eccentricity: 0.0007996
Arg of perigee: 258.3677 deg
Mean anomaly: 101.6617 deg
Mean motion: 14.29519670 rev/day
Decay rate: 5.0e-08 rev/day^2
Epoch rev: 82010
Checksum: 346
Satellite: GO-32
Catalog number: 25397
Epoch time: 09168.70536541
Element set: 0920
Inclination: 098.3265 deg
RA of node: 191.0183 deg
Eccentricity: 0.0000399
Arg of perigee: 209.8811 deg
Mean anomaly: 150.2332 deg
Mean motion: 14.23159401 rev/day
Decay rate: -1.44e-06 rev/day^2
Epoch rev: 56820
Checksum: 290
Satellite: NO-44
Catalog number: 26931
Epoch time: 09168.77413924
Element set: 0196
Inclination: 067.0528 deg
RA of node: 062.8327 deg
Eccentricity: 0.0005596
Arg of perigee: 272.0469 deg
Mean anomaly: 087.9968 deg
Mean motion: 14.29560040 rev/day
Decay rate: 1.17e-06 rev/day^2
Epoch rev: 40266
Checksum: 332
Satellite: SO-50
Catalog number: 27607
Epoch time: 09168.59575225
Element set: 0912
Inclination: 064.5582 deg
RA of node: 023.8492 deg
Eccentricity: 0.0067242
Arg of perigee: 205.6162 deg
Mean anomaly: 154.1628 deg
Mean motion: 14.71441897 rev/day
Decay rate: -2.5e-07 rev/day^2
